Station 46070 (LLNR 1198.1) - SOUTHWEST BERING SEA - 142NM NNE OF ATTU IS, AK Image indicating link to RSS feed of recent meteorological observations for station 46070


Conditions at 46070 as of
(4:40 pm HAST on 07/22/2024)
0240 GMT on 07/23/2024:
     

Click on the graph icon in the table below to see a time series plot of the last five days of that observation.

5-day plot - Wind Direction Wind Direction (WDIR):ENE ( 70 deg true )
5-day plot - Wind Speed Wind Speed (WSPD): 9.7 kts
5-day plot - Wind Gust Wind Gust (GST): 11.7 kts
5-day plot - Atmospheric Pressure Atmospheric Pressure (PRES):29.68 in
5-day plot - Air Temperature Air Temperature (ATMP): 48.7 °F
5-day plot - Water Temperature Water Temperature (WTMP): 49.1 °F
5-day plot - Dew Point Dew Point (DEWP): 47.3 °F
5-day plot - Wind Chill Wind Chill (CHILL): 44.1 °F
5-day plot - Wind Speed at 10 Meters Wind Speed at 10 meters (WSPD10M): 11.7 kts
5-day plot - Wind Speed at 20 Meters Wind Speed at 20 meters (WSPD20M): 11.7 kts
5-day plot -  Wind Speed, Wind Gust and Atmospheric Pressure Combined plot of Wind Speed, Gust, and Air Pressure
Supplemental Measurements
Highest 1-minute Wind Speed
Time (HAST)5-day plot - 1-Minute Wind Speed WSPD 5-day plot - 1-Minute Wind Direction WDIR
4:31 pm 11.7 kts-
Previous observations
TIME
(HAST)
5-day plot - Wind Direction
WDIR
 
5-day plot - Wind Speed
WSPD
kts
5-day plot - Wind Gust
GST
kts
5-day plot - Wave Height
WVHT
ft
5-day plot - Dominant Wave Period
DPD
sec
5-day plot - Average Wave Period
APD
sec
5-day plot - Mean Wave Direction
MWD
 
5-day plot - Atmospheric Pressure
PRES
in
5-day plot - Pressure Tendency
PTDY
in
5-day plot - Air Temperature
ATMP
°F
5-day plot - Water Temperature
WTMP
°F
5-day plot - Dew Point
DEWP
°F
5-day plot - Salinity
SAL
psu
5-day plot - Visibility
VIS
nmi
5-day plot - Tide (above MLLW)
TIDE
ft
2024-07-22 04:30 pmENE 11.7 13.6----29.68- 48.7 49.1 47.3---
2024-07-22 04:20 pmENE 9.7 11.7 3.9 65.1 E29.68- 48.7 49.1 47.3---
2024-07-22 04:10 pmENE 9.7 13.6 3.9-5.1 E29.69- 48.7 49.1 47.3---
2024-07-22 04:00 pmENE 11.7 13.6----29.69+0.00 48.7 49.1 47.3---
2024-07-22 03:50 pmENE 11.7 13.6 3.6 65.1 E29.69- 48.7 49.1 47.3---
2024-07-22 03:40 pmENE 9.7 13.6 3.6-5.1 E29.69- 48.7 49.1 47.3---
2024-07-22 03:30 pmENE 9.7 11.7----29.69- 48.6 49.1 47.3---
2024-07-22 03:20 pmENE 9.7 11.7 3.9 75.2 E29.69- 48.6 49.1 47.3---
2024-07-22 03:10 pmENE 9.7 13.6 3.9-5.2 E29.69- 48.6 49.1 47.3---
2024-07-22 03:00 pmENE 9.7 11.7----29.69+0.00 48.6 49.1 47.3---
2024-07-22 02:50 pmENE 9.7 13.6 4.3 75.2 E29.69- 48.6 49.1 47.3---
2024-07-22 02:40 pmENE 9.7 13.6----29.69- 48.6 49.1 47.3---
2024-07-22 02:30 pmENE 11.7 13.6----29.69- 48.6 49.1 47.3---
2024-07-22 02:20 pmENE 11.7 13.6 3.9 85.2 E29.69- 48.6 49.1 47.7---
2024-07-22 02:10 pmENE 11.7 13.6 3.9-5.2 E29.70- 48.4 49.1 47.5---
2024-07-22 02:00 pmENE 11.7 13.6----29.70+0.01 48.4 49.1 47.5---
2024-07-22 01:50 pmENE 11.7 13.6 3.9 75.2 E29.69- 48.4 49.1 47.5---
2024-07-22 01:40 pmENE 11.7 13.6----29.69- 48.4 49.1 47.3---
2024-07-22 01:10 pm NE 11.7 13.6 3.9-5.2 E29.69- 48.4 49.1 47.5---
2024-07-22 01:00 pmENE 11.7 13.6----29.69+0.01 48.4 49.1 47.5---
2024-07-22 12:50 pm NE 11.7 13.6 3.9 75.2 E29.69- 48.4 49.1 47.5---
2024-07-22 12:40 pm NE 11.7 13.6 3.9-5.2 E29.69- 48.4 49.1 47.5---
2024-07-22 12:30 pm NE 9.7 13.6----29.69- 48.4 49.1 47.5---
2024-07-22 12:20 pmENE 9.7 11.7 4.3 65.3ENE29.69- 48.4 49.1 47.5---
2024-07-22 12:10 pmENE 9.7 11.7 4.3-5.3ENE29.70- 48.4 49.1 47.3---
2024-07-22 12:00 pmENE 9.7 11.7----29.69+0.02 48.6 49.1 46.9---
2024-07-22 11:50 amENE 9.7 11.7 4.3 75.2 E29.69- 48.7 49.1 46.9---
2024-07-22 11:40 amENE 9.7 11.7 4.3-5.2 E29.69- 48.6 49.1 46.8---
2024-07-22 11:30 amENE 9.7 11.7----29.69- 48.6 49.1 46.8---
2024-07-22 11:20 amENE 9.7 11.7 4.3 75.3 E29.69- 48.6 49.1 46.8---
2024-07-22 11:10 amENE 9.7 11.7 4.3-5.3 E29.69- 48.6 49.1 46.9---
2024-07-22 11:00 amENE 9.7 11.7----29.69+0.03 48.6 49.1 47.1---
2024-07-22 10:50 amENE 9.7 11.7 4.3 75.2 E29.68- 48.6 49.1 47.1---
2024-07-22 10:40 am E 9.7 11.7 4.3-5.2 E29.68- 48.4 49.1 46.9---
2024-07-22 10:30 am E 9.7 13.6----29.68- 48.4 49.1 46.9---
2024-07-22 10:20 am E 9.7 11.7 3.9 65.1 E29.68- 48.4 49.1 46.9---
2024-07-22 10:10 am E 9.7 11.7 3.9-5.1 E29.68- 48.4 49.1 46.6---
2024-07-22 10:00 am E 9.7 11.7----29.68+0.03 48.4 49.1 46.8---
2024-07-22 09:50 am E 9.7 13.6 3.9 65.0 E29.68- 48.2 48.9 46.8---
2024-07-22 09:40 am E 11.7 13.6----29.68- 48.2 48.9 46.6---
2024-07-22 09:30 am E 11.7 15.5----29.68- 48.4 48.9 46.6---
2024-07-22 09:20 am E 9.7 13.6 4.3 75.2ESE29.68- 48.4 48.9 46.8---
2024-07-22 09:10 am E 11.7 13.6 4.3-5.2ESE29.67- 48.2 48.9 46.8---
2024-07-22 09:00 amENE 11.7 13.6----29.67+0.04 48.4 48.9 46.8---
2024-07-22 08:50 amENE 11.7 15.5 4.3 65.1 E29.67- 48.4 48.9 46.6---
2024-07-22 08:40 amENE 11.7 15.5 4.3-5.1 E29.67- 48.4 48.9 46.8---
2024-07-22 08:30 am E 11.7 15.5----29.67- 48.6 48.9 46.8---
2024-07-22 08:20 am E 11.7 13.6 4.3 65.0ENE29.67- 48.4 48.9 46.8---
2024-07-22 08:10 am E 11.7 15.5----29.66- 48.4 48.9 46.9---
2024-07-22 08:00 am E 11.7 17.5----29.66+0.03 48.4 48.9 46.9---
2024-07-22 07:50 amENE 11.7 15.5 4.3 65.0ENE29.66- 48.4 48.9 47.1---
2024-07-22 07:40 amENE 11.7 15.5----29.65- 48.4 48.9 47.1---
2024-07-22 07:30 amENE 11.7 15.5----29.65- 48.4 48.9 47.1---
2024-07-22 07:20 am E 11.7 15.5 4.3 65.0 E29.65- 48.4 48.9 47.1---
2024-07-22 07:10 am E 13.6 15.5 4.3-5.0 E29.65- 48.4 48.9 47.1---
2024-07-22 07:00 am E 13.6 17.5----29.65+0.02 48.4 48.9 47.1---
2024-07-22 06:50 am E 11.7 15.5 4.6 75.1 E29.65- 48.6 48.9 47.1---
2024-07-22 06:40 am E 11.7 15.5 4.6-5.1 E29.64- 48.4 48.9 47.1---
2024-07-22 06:30 am E 11.7 15.5----29.64- 48.6 48.9 47.3---
2024-07-22 06:20 am E 11.7 15.5 4.3 75.1ESE29.64- 48.6 48.9 47.3---
2024-07-22 06:10 am E 11.7 13.6 4.3-5.1ESE29.64- 48.6 48.9 47.3---
2024-07-22 06:00 amENE 11.7 13.6----29.64+0.00 48.4 48.9 47.1---
2024-07-22 05:50 amENE 11.7 13.6 4.3 75.1 E29.64- 48.4 48.9 47.1---
2024-07-22 05:40 amENE 11.7 13.6----29.63- 48.4 48.9 47.1---
2024-07-22 05:30 amENE 11.7 13.6----29.63- 48.2 48.9 47.3---
2024-07-22 05:20 amENE 11.7 13.6 4.3 75.1ESE29.63- 48.2 48.9 47.3---
2024-07-22 05:10 amENE 11.7 13.6 4.3-5.1ESE29.63- 48.2 48.9 47.3---
2024-07-22 05:00 amENE 11.7 13.6----29.63+0.00 48.2 48.9 47.3---
2024-07-22 04:50 am NE 11.7 13.6 4.3 65.1ENE29.62- 48.2 48.9 47.3---
2024-07-22 04:40 am NE 11.7 13.6 4.3-5.1ENE29.62- 48.2 48.9 47.3---
2024-07-22 04:30 amENE 11.7 15.5----29.63- 48.2 48.9 47.3---
2024-07-22 04:20 amENE 11.7 15.5 3.9 65.0ENE29.63- 48.2 48.9 47.1---
2024-07-22 04:10 amENE 11.7 15.5----29.63- 48.2 48.9 47.1---
2024-07-22 04:00 amENE 11.7 13.6----29.63+0.00 48.2 48.9 47.3---
2024-07-22 03:50 am NE 11.7 13.6 3.9 75.1 E29.63- 48.2 48.9 47.1---
2024-07-22 03:40 amENE 11.7 13.6----29.63- 48.4 48.9 47.1---
2024-07-22 03:30 amENE 9.7 13.6----29.63- 48.4 48.9 47.1---
2024-07-22 03:20 amENE 9.7 13.6 3.9 75.1 E29.63- 48.4 48.9 47.1---
2024-07-22 03:10 amENE 11.7 13.6 3.9-5.1 E29.63- 48.4 48.9 47.5---
2024-07-22 03:00 amENE 11.7 13.6----29.64+0.00 48.4 48.9 47.5---
2024-07-22 02:50 am NE 9.7 11.7 3.9 75.2ESE29.63- 48.4 48.9 47.5---
2024-07-22 02:40 am NE 11.7 13.6 3.9-5.2ESE29.64- 48.4 48.9 47.5---
2024-07-22 02:30 amENE 9.7 13.6----29.64- 48.4 48.9 47.5---
2024-07-22 02:20 amENE 11.7 13.6 3.9 65.2ENE29.63- 48.4 48.9 47.1---
2024-07-22 02:10 amENE 9.7 13.6 3.9-5.2ENE29.63- 48.4 48.9 47.1---
2024-07-22 02:00 amENE 11.7 13.6----29.63+0.01 48.4 48.9 47.1---
2024-07-22 01:50 amENE 11.7 11.7 3.6 75.2 E29.63- 48.4 48.9 47.1---
2024-07-22 01:40 amENE 9.7 11.7----29.63- 48.4 48.9 47.1---
2024-07-22 01:30 amENE 9.7 11.7----29.63- 48.4 48.9 47.3---
2024-07-22 01:20 amENE 9.7 13.6 3.9 55.1 NE29.63- 48.4 48.9 47.5---
2024-07-22 01:10 amENE 9.7 11.7 3.9-5.1 NE29.63- 48.4 48.9 47.3---
2024-07-22 01:00 amENE 9.7 13.6----29.63+0.02 48.4 48.9 47.5---
2024-07-22 12:50 amENE 9.7 11.7 3.9 55.2ENE29.63- 48.4 48.9 47.5---
2024-07-22 12:40 amENE 9.7 11.7----29.63- 48.4 48.9 47.5---
2024-07-22 12:30 amENE 9.7 11.7----29.63- 48.4 48.9 47.5---
2024-07-22 12:20 amENE 9.7 11.7 3.6 75.1 E29.63- 48.4 48.9 47.3---
2024-07-22 12:10 amENE 9.7 13.6 3.6-5.1 E29.63- 48.4 48.9 47.1---
2024-07-22 12:00 amENE 9.7 11.7----29.63+0.03 48.6 48.9 47.3---
2024-07-21 11:50 pmENE 7.8 11.7 3.6 75.1ESE29.63- 48.6 48.9 47.3---
2024-07-21 11:40 pmENE 9.7 11.7 3.6-5.1ESE29.63- 48.6 48.9 47.1---
2024-07-21 11:30 pmENE 9.7 11.7----29.63- 48.4 48.9 46.9---
2024-07-21 11:20 pmENE 9.7 11.7 3.6 75.0 E29.63- 48.6 48.9 47.1---
2024-07-21 11:10 pmENE 9.7 11.7 3.6-5.0 E29.62- 48.6 48.9 47.3---
2024-07-21 11:00 pmENE 9.7 11.7----29.62+0.02 48.6 48.9 47.3---
2024-07-21 10:50 pmENE 9.7 11.7 3.9 75.2 SE29.62- 48.4 48.9 47.1---
2024-07-21 10:40 pmENE 9.7 11.7 3.9-5.2 SE29.62- 48.4 48.9 47.1---
2024-07-21 10:30 pmENE 9.7 11.7----29.62- 48.4 48.9 47.1---
2024-07-21 10:20 pmENE 9.7 13.6 3.9 75.2 E29.61- 48.4 48.9 46.9---
2024-07-21 10:10 pmENE 9.7 13.6 3.9-5.2 E29.61- 48.6 48.9 47.1---
2024-07-21 10:00 pmENE 9.7 13.6----29.61+0.01 48.6 48.9 47.1---
2024-07-21 09:50 pmENE 9.7 11.7 3.6 65.0 NE29.61- 48.6 48.9 47.1---
2024-07-21 09:40 pmENE 11.7 13.6----29.61- 48.7 48.9 47.3---
2024-07-21 09:30 pmENE 9.7 11.7----29.61- 48.7 48.9 47.3---
2024-07-21 09:20 pmENE 9.7 11.7 3.6 75.1ESE29.60- 48.6 48.9 47.1---
2024-07-21 09:10 pmENE 9.7 11.7 3.6-5.1ESE29.60- 48.6 48.9 46.9---
2024-07-21 09:00 pmENE 11.7 15.5----29.60+0.00 48.6 48.9 46.9---
2024-07-21 08:50 pmENE 11.7 13.6 3.6 85.1 S29.61- 48.4 48.9 46.8---
2024-07-21 08:40 pmENE 11.7 13.6----29.60- 48.6 48.9 47.3---
2024-07-21 08:30 pmENE 9.7 13.6----29.60- 48.6 48.9 47.1---
2024-07-21 08:20 pmENE 9.7 13.6 3.6 75.0ESE29.60- 48.7 48.9 47.3---
2024-07-21 08:10 pmENE 11.7 13.6 3.6-5.0ESE29.60- 48.7 48.9 47.3---
2024-07-21 08:00 pmENE 11.7 13.6----29.60+0.00 48.7 48.9 47.3---
2024-07-21 07:50 pmENE 11.7 15.5 3.9 75.2 SE29.60- 48.6 48.9 47.3---
2024-07-21 07:40 pmENE 9.7 13.6----29.60- 48.6 48.9 47.1---
2024-07-21 07:30 pmENE 9.7 11.7----29.60- 48.7 48.9 47.3---
2024-07-21 07:20 pmENE 9.7 11.7 3.9 85.1 SE29.60- 48.6 48.9 47.1---
2024-07-21 07:10 pmENE 9.7 13.6 3.9-5.1 SE29.60- 48.6 48.9 47.3---
2024-07-21 07:00 pmENE 9.7 13.6----29.60+0.01 48.4 48.9 47.1---
2024-07-21 06:50 pmENE 11.7 13.6 3.6 75.0ESE29.60- 48.4 48.9 47.1---
2024-07-21 06:40 pmENE 11.7 13.6 3.6-5.0ESE29.60- 48.4 48.9 47.5---
2024-07-21 06:30 pm NE 11.7 15.5----29.59- 48.6 48.9 47.7---
2024-07-21 06:20 pmENE 9.7 13.6 3.9 55.0 E29.59- 48.6 48.9 47.7---
2024-07-21 06:10 pmENE 9.7 13.6 3.9-5.0 E29.59- 48.6 48.9 47.7---
2024-07-21 06:00 pmENE 11.7 13.6----29.60+0.00 48.6- 47.5---
2024-07-21 05:50 pmENE 11.7 13.6 3.6 65.0 E29.59- 48.6 48.9 47.3---
2024-07-21 05:40 pmENE 11.7 13.6 3.6-5.0 E29.59- 48.4 48.9 47.5---
2024-07-21 05:30 pm NE 11.7 13.6----29.59- 48.4 48.9 47.5---
2024-07-21 05:20 pm NE 11.7 13.6 4.3 75.2ESE29.59- 48.6 48.9 47.5---
2024-07-21 05:10 pm NE 9.7 13.6 4.3-5.2ESE29.59- 48.7 48.9 47.5---
2024-07-21 05:00 pm NE 9.7 13.6----29.59+0.00 48.7 48.9 47.5---
2024-07-21 04:50 pmENE 9.7 13.6 3.9 65.1 E29.59- 48.7 48.9 47.5---

Detailed Wave Summary
for 46070 as of
(4:10 pm HAST on 07/22/2024)
0210 GMT on 07/23/2024:

These wave data are displayed in rounded times.

     

Click on the graph icon in the table below to see a time series plot of the last five days of that observation.

5-day plot - Significant Wave Height Significant Wave Height (WVHT): 3.9 ft
5-day plot - Swell Height Swell Height (SwH): 3.0 ft
5-day plot - Swell Period Swell Period (SwP): 6.2 sec
5-day plot - Swell Direction Swell Direction (SwD): E
5-day plot - Wind Wave Height Wind Wave Height (WWH): 2.3 ft
5-day plot - Wind Wave Period Wind Wave Period (WWP): 4.3 sec
5-day plot - Wind Wave Direction Wind Wave Direction (WWD): NE
5-day plot - Wave Steepness Wave Steepness (STEEPNESS): STEEP
5-day plot - Average Wave Period Average Wave Period (APD): 5.1 sec
Previous observations
TIME
(HAST)
5-day plot - Wave Height
WVHT
ft
5-day plot - Swell Height
SwH
ft
5-day plot - Swell Period
SwP
sec
5-day plot - Swell Direction
SwD
 
5-day plot - Wind Wave Height
WWH
ft
5-day plot - Wind Wave Period
WWP
sec
5-day plot - Wind Wave Direction
WWD
 
5-day plot - Wave Steepness
STEEPNESS
 
5-day plot - Average Wave Period
APD
sec
2024-07-22 03:40 pm 3.6 3.0 6.2 E 2.3 4.8 NE STEEP 5.1
2024-07-22 03:10 pm 3.9 3.3 6.7 E 2.0 4.5 ENE STEEP 5.2
2024-07-22 02:40 pm 4.3 3.6 6.7 E 2.3 4.5 ENE STEEP 5.2
2024-07-22 02:10 pm 3.9 3.3 7.7 E 2.3 4.8 NE AVERAGE 5.2
2024-07-22 01:40 pm 3.9 3.3 6.7 E 2.6 4.5 E STEEP 5.2
2024-07-22 01:10 pm 3.9 3.0 6.7 E 2.3 5.3 ENE STEEP 5.2
2024-07-22 12:40 pm 3.9 3.0 6.7 E 2.3 4.5 ENE STEEP 5.2
2024-07-22 12:10 pm 4.3 3.6 5.9ENE 2.0 4.5 ENE STEEP 5.3
2024-07-22 11:40 am 4.3 3.6 7.1 E 2.3 4.8 ENE STEEP 5.2
2024-07-22 11:10 am 4.3 3.9 7.1 E 2.0 4.3 ENE STEEP 5.3
2024-07-22 10:40 am 4.3 3.9 7.1 E 2.0 4.3 NE STEEP 5.2
2024-07-22 10:10 am 3.9 3.3 5.9 E 2.3 5.0 NE STEEP 5.1
2024-07-22 09:40 am 3.9 3.0 6.2 E 2.6 3.7 NE STEEP 5.0
2024-07-22 09:10 am 4.3 3.6 7.1ESE 2.6 5.0 ENE STEEP 5.2
2024-07-22 08:40 am 4.3 2.6 6.2 E 3.3 5.3 ENE STEEP 5.1
2024-07-22 08:10 am 4.3 3.0 6.2ENE 3.0 5.6 ENE STEEP 5.0
2024-07-22 07:40 am 4.3 3.3 6.2ENE 3.0 4.0 ENE STEEP 5.0
2024-07-22 07:10 am 4.3 2.3 9.1 SE 3.6 6.2 E STEEP 5.0
2024-07-22 06:40 am 4.6 3.0 6.7 E 3.3 4.3 NE STEEP 5.1
2024-07-22 06:10 am 4.3 3.3 7.1ESE 2.6 4.8 ENE STEEP 5.1
2024-07-22 05:40 am 4.3 3.3 6.7 E 2.6 5.3 ENE STEEP 5.1
2024-07-22 05:10 am 4.3 3.3 7.1ESE 2.6 5.3 ENE AVERAGE 5.1
2024-07-22 04:40 am 4.3 3.0 7.7 SE 3.0 5.6 ENEVERY_STEEP 5.1
2024-07-22 04:10 am 3.9 3.0 6.2ENE 2.6 5.3 NE STEEP 5.0
2024-07-22 03:40 am 3.9 3.0 7.1 E 2.6 5.3 ENE AVERAGE 5.1
2024-07-22 03:10 am 3.9 3.0 6.7 E 2.3 5.3 NE STEEP 5.1
2024-07-22 02:40 am 3.9 3.3 6.7ESE 2.3 5.0 NE STEEP 5.2
2024-07-22 02:10 am 3.9 3.3 5.9ENE 2.0 4.5 NNE STEEP 5.2
2024-07-22 01:40 am 3.6 3.0 7.1 E 2.0 4.8 NE AVERAGE 5.2
2024-07-22 01:10 am 3.9 3.3 5.3 NE 1.6 4.2 NEVERY_STEEP 5.1
2024-07-22 12:40 am 3.9 3.3 5.3ENE 1.6 4.3 NEVERY_STEEP 5.2
2024-07-22 12:10 am 3.6 3.0 7.1 E 2.3 5.0 NE AVERAGE 5.1
2024-07-21 11:40 pm 3.6 3.3 6.7ESE 1.6 3.4 NE STEEP 5.1
2024-07-21 11:10 pm 3.6 3.3 6.7 E 2.0 4.3 NE STEEP 5.0
2024-07-21 10:40 pm 3.9 3.3 7.1 SE 2.0 3.4 NE AVERAGE 5.2
2024-07-21 10:10 pm 3.9 3.3 6.7 E 2.3 4.8 NE STEEP 5.2
2024-07-21 09:40 pm 3.6 2.6 5.6 NE 2.3 4.8 NE STEEP 5.0
2024-07-21 09:10 pm 3.6 3.0 7.1ESE 2.3 5.0 NE AVERAGE 5.1
2024-07-21 08:40 pm 3.6 2.6 8.3 S 2.6 5.0 ENE AVERAGE 5.1
2024-07-21 08:10 pm 3.6 2.6 7.1ESE 2.3 5.3 ENE AVERAGE 5.0
2024-07-21 07:40 pm 3.9 3.3 7.1 SE 2.3 4.3 ENE AVERAGE 5.2
2024-07-21 07:10 pm 3.9 3.3 7.7 SE 2.3 4.5 ENE AVERAGE 5.1
2024-07-21 06:40 pm 3.6 3.0 6.7ESE 2.3 4.5 NE STEEP 5.0
2024-07-21 06:10 pm 3.9 3.0 5.3 E 2.3 4.0 NEVERY_STEEP 5.0
2024-07-21 05:40 pm 3.6 3.0 5.6 E 2.3 4.8 ENE STEEP 5.0
2024-07-21 05:10 pm 4.3 3.3 7.1ESE 2.3 3.7 NNE AVERAGE 5.2

Plot of wave energy versus frequency (and period)